Regional Weather Roundup
Issued by NWS

Home | Current Version | Previous Version | Text Only | Print | Product List | Glossary Off
Versions: 1 2 3 4 5 6 7 8 9 10 11 12 13 14 15 16 17 18 19 20 21 22 23 24 25 26 27 28 29 30 31 32 33 34 35 36 37 38 39 40 41 42 43 44 45 46 47 48 49 50

185
ASUS43 KOAX 191502
RWRNE

WEATHER ROUNDUP FOR NEBRASKA
NATIONAL WEATHER SERVICE OMAHA NE
900 AM CST THU JAN 19 2017

NOTES: SATELLITE DATA IS BEING USED TO AUGMENT CLOUD COVER ABOVE
       12000 FEET.
       "FAIR" INDICATES FEW OR NO CLOUDS BELOW 12,000 FEET WITH NO
       SIGNIFICANT WEATHER AND/OR OBSTRUCTIONS TO VISIBILITY.

  * THESE STATIONS DO NOT REPORT WEATHER SUCH AS RAIN...SNOW OR FOG.

NEZ001>004-019>022-054>056-191600-
NEBRASKA PANHANDLE

CITY           SKY/WX    TMP DP  RH WIND       PRES   REMARKS
SCOTTSBLUFF    CLOUDY    25  18  74 E5        29.59S WCI  19
ALLIANCE       CLOUDY    17  13  84 W6        29.57F WCI   9
CHADRON        CLOUDY    18  12  77 SW8       29.56F WCI   8
SIDNEY         CLOUDY    23  18  81 CALM      29.60R
$$

NEZ057>060-069>072-079>082-191600-
SOUTHWEST NEBRASKA

CITY           SKY/WX    TMP DP  RH WIND       PRES   REMARKS
NORTH PLATTE   FOG       32  31  96 SE7       29.63R VSB 1/4 WCI  26
IMPERIAL       CLOUDY    23  19  85 W3        29.62R
LEXINGTON      FOG       37  36  96 E5        29.64F VSB 1/4 WCI  33
MCCOOK         FOG       35  35 100 SE6       29.63F VSB<1/4 WCI  30
OGALLALA       CLOUDY    20  18  92 CALM      29.62F
$$

NEZ005>010-023>029-035>040-094-191600-
NORTH CENTRAL NEBRASKA

CITY           SKY/WX    TMP DP  RH WIND       PRES   REMARKS
VALENTINE      CLOUDY    28  23  81 SW7       29.57F WCI  21
AINSWORTH      FOG       32  32 100 S12       29.58S VSB 1/2 WCI  23
BROKEN BOW     FOG       38  37  97 S8        29.64F VSB 1/2 WCI  32
O`NEILL        CLOUDY    38  38  99 S12       29.65F FOG     WCI  31
ORD            FOG       37  35  92 SE6       29.65F VSB 1/4 WCI  32
THEDFORD       FOG       30  29  98 S6        29.61S VSB 1/4 WCI  24
$$

NEZ041-046>049-061>064-073>077-083>087-191600-
SOUTH CENTRAL NEBRASKA

CITY           SKY/WX    TMP DP  RH WIND       PRES   REMARKS
GRAND ISLAND   FOG       36  36 100 SE5       29.70S VSB 1/4 WCI  32
AURORA         FOG       36  36 100 SE6       29.70S VSB 1/4 WCI  31
HASTINGS       FOG       38  37  97 S6        29.70S VSB 1/4 WCI  33
HEBRON         CLOUDY    39  39  99 S3        29.73S FOG
HOLDREGE       FOG       38  37  98 SE5       29.67S VSB 1/4 WCI  34
KEARNEY *      CLOUDY    37  36  93 SE8       29.68R VSB<1/4 WCI  31
YORK           FOG       37  37 100 SE6       29.72S VSB 1/4 WCI  33
$$

NEZ011>018-030>034-042>045-191600-
NORTHEAST NEBRASKA

CITY           SKY/WX    TMP DP  RH WIND       PRES   REMARKS
NORFOLK        FOG       36  35  96 S3        29.71F VSB 1
ALBION         FOG       36  35  96 SE6       29.70S VSB 1/4 WCI  31
BLAIR          CLOUDY    36  35  97 S8        29.77S FOG     WCI  30
FREMONT        CLOUDY    35  35 100 SE3       29.77S FOG
TEKAMAH        CLOUDY    33  31  92 SE7       29.78S FOG     WCI  27
WAYNE          CLOUDY    35  35  98 S8        29.74S FOG     WCI  29
$$

NEZ050>053-065>068-078-088>093-191600-
SOUTHEAST NEBRASKA

CITY           SKY/WX    TMP DP  RH WIND       PRES   REMARKS
LINCOLN        FOG       35  34  96 CALM      29.78R VSB 1
OMAHA EPPLEY   CLOUDY    34  31  88 SE3       29.79S FOG
BEATRICE       FOG       38  38 100 SE7       29.75F VSB 1/2 WCI  33
FALLS CITY     FOG       39  38  96 E3        29.79S VSB<1/4
NEBRASKA CITY    N/A    N/A N/A N/A MISG        N/A
PLATTSMOUTH    CLOUDY    38  36  90 SE6       29.78F FOG     WCI  34
$$

NEZ044-045-051>053-067-191600-
OMAHA AREA

CITY           SKY/WX    TMP DP  RH WIND       PRES   REMARKS
OMAHA EPPLEY   CLOUDY    34  31  88 SE3       29.79S FOG
BLAIR          CLOUDY    36  35  97 S8        29.77S FOG     WCI  30
FREMONT        CLOUDY    35  35 100 SE3       29.77S FOG
MILLARD        CLOUDY    35  33  95 CALM      29.78F FOG
OFFUTT AFB     CLOUDY    36  36 100 E3        29.79R FOG
PLATTSMOUTH    CLOUDY    38  36  90 SE6       29.78F FOG     WCI  34
WAHOO          FOG       34  33  96 SE8       29.77S VSB 1   WCI  27
$$




USA.gov is the U.S. government's official web portal to all federal, state and local government web resources and services.